Weather History for Cold Bay, AK

Change the Weather History Date:

Tuesday, October 30, 2012

  Actual Average Record
Temperature  
Mean Temperature 34 °F 37 °F  
Max Temperature 37 °F 42 °F 53 °F (1971)
Min Temperature 30 °F 32 °F 13 °F (1999)
Degree Days  
Heating Degree Days 31 28  
Month to date heating degree days 712 734  
Since 1 July heating degree days 2229 2085  
Cooling Degree Days 0    
Month to date cooling degree days 0  
Year to date cooling degree days 0  
Moisture  
Dew Point 23 °F    
Average Humidity 68    
Maximum Humidity 86    
Minimum Humidity 46    
Precipitation  
Precipitation 0.00 in 0.15 in 1.09 in (1984)
Month to date precipitation 4.61 4.61  
Year to date precipitation 35.77 32.08  
Snow  
Snow 0.00 in 0.10 in 1.70 in (1976)
Month to date snowfall 0.6 2.2  
Since 1 July snowfall 0.6 2.2  
Since 1 September snowfall 0.6 2.2  
Snow Depth 0.00 in    
Sea Level Pressure  
Sea Level Pressure 30.23 in    
Wind  
Wind Speed 0 mph (North)    
Max Wind Speed 26 mph    
Max Gust Speed 35 mph    
Visibility 9 miles    
Events Snow    
T = Trace of Precipitation, MM = Missing Value Source: NWS Daily Summary

Daily Weather History Graph

Daily Weather History Graph

Search for Another Location

Airport:

Trip Planner

Search our weather history database for the weather conditions in past years. The results will help you decide how hot, cold, wet, or windy it might be!

Date:

Astronomy

Oct. 30, 2012 Rise Set
Actual Time 9:52 AM AKDT 7:15 PM AKDT
Civil Twilight 9:14 AM AKDT 7:53 PM AKDT
Nautical Twilight 8:31 AM AKDT 8:36 PM AKDT
Astronomical Twilight 7:48 AM AKDT 9:19 PM AKDT
Moon 7:36 PM AKDT (10/30) 11:06 AM AKDT (10/30)
Length of Visible Light 10h 39m
Length of Day
9h 22m
Full, 99% of the Moon is Illuminated
Oct 30
Full
Nov 6
Last Quarter
Nov 13
New
Nov 20
First Quarter
Nov 28
Full

Hourly Weather History & Observations

Time (AKDT) Temp. Windchill Dew Point Humidity Pressure Visibility Wind Dir Wind Speed Gust Speed Precip Events Conditions
12:53 AM 37.0 °F 27.4 °F 30.9 °F 79% 30.23 in 10.0 mi North 17.3 mph - N/A   Overcast
1:53 AM 37.0 °F 26.4 °F 30.0 °F 76% 30.24 in 10.0 mi North 20.7 mph - N/A   Overcast
2:53 AM 36.0 °F 25.6 °F 30.0 °F 79% 30.24 in 10.0 mi North 18.4 mph - N/A   Overcast
3:53 AM 36.0 °F 25.0 °F 28.9 °F 76% 30.24 in 10.0 mi North 20.7 mph 28.8 mph N/A   Overcast
4:53 AM 36.0 °F 25.0 °F 27.0 °F 70% 30.25 in 10.0 mi North 20.7 mph 26.5 mph N/A   Overcast
5:53 AM 33.1 °F 20.9 °F 24.1 °F 70% 30.26 in 10.0 mi North 21.9 mph 29.9 mph N/A   Overcast
6:53 AM 32.0 °F 19.8 °F 23.0 °F 69% 30.26 in 10.0 mi North 20.7 mph 29.9 mph N/A   Overcast
7:53 AM 32.0 °F 20.5 °F 21.0 °F 64% 30.27 in 10.0 mi North 18.4 mph 29.9 mph N/A   Overcast
8:53 AM 30.9 °F 19.1 °F 19.0 °F 61% 30.27 in 10.0 mi NNE 18.4 mph 29.9 mph N/A   Overcast
9:53 AM 30.0 °F 17.2 °F 18.0 °F 61% 30.27 in 10.0 mi North 20.7 mph 31.1 mph N/A   Mostly Cloudy
10:53 AM 30.9 °F 18.4 °F 19.0 °F 61% 30.27 in 10.0 mi North 20.7 mph 31.1 mph N/A   Overcast
11:53 AM 30.9 °F 18.7 °F 18.0 °F 59% 30.27 in 10.0 mi North 19.6 mph 31.1 mph N/A   Mostly Cloudy
12:53 PM 30.9 °F 19.1 °F 18.0 °F 59% 30.28 in 10.0 mi North 18.4 mph 32.2 mph N/A   Overcast
1:53 PM 30.9 °F 18.7 °F 19.0 °F 61% 30.27 in 10.0 mi North 19.6 mph 31.1 mph N/A   Overcast
2:53 PM 30.9 °F 18.7 °F 18.0 °F 59% 30.27 in 10.0 mi North 19.6 mph 33.4 mph N/A   Overcast
3:53 PM 32.0 °F 21.2 °F 19.0 °F 59% 30.25 in 10.0 mi North 16.1 mph 28.8 mph N/A   Overcast
4:53 PM 32.0 °F 21.6 °F 21.0 °F 64% 30.23 in 9.0 mi North 15.0 mph 29.9 mph 0.00 in Snow Light Snow
5:53 PM 32.0 °F 19.8 °F 19.9 °F 61% 30.22 in 10.0 mi North 20.7 mph 26.5 mph 0.00 in   Overcast
6:53 PM 30.9 °F 19.8 °F 19.9 °F 64% 30.21 in 10.0 mi North 16.1 mph 29.9 mph 0.00 in   Overcast
7:53 PM 30.9 °F 19.1 °F 21.0 °F 67% 30.20 in 9.0 mi North 18.4 mph 27.6 mph 0.00 in   Overcast
8:53 PM 30.9 °F 19.1 °F 19.0 °F 61% 30.19 in 10.0 mi North 18.4 mph 29.9 mph 0.00 in   Overcast
9:53 PM 28.9 °F 18.6 °F 23.0 °F 78% 30.18 in 5.0 mi North 12.7 mph - 0.00 in Snow Light Snow
10:11 PM 30.2 °F 16.8 °F 24.8 °F 80% 30.18 in 6.0 mi North 23.0 mph 31.1 mph 0.00 in Snow Light Snow
10:39 PM 28.4 °F 15.4 °F 23.0 °F 80% 30.16 in 7.0 mi North 19.6 mph 27.6 mph 0.00 in   Overcast
10:43 PM 28.4 °F 15.1 °F 24.8 °F 86% 30.16 in 2.5 mi North 20.7 mph 28.8 mph 0.00 in Snow Light Snow
10:53 PM 28.9 °F 17.3 °F 25.0 °F 85% 30.17 in 1.5 mi North 16.1 mph 25.3 mph 0.01 in Snow Light Snow
10:59 PM 30.2 °F 18.1 °F 24.8 °F 80% 30.16 in 3.0 mi North 18.4 mph 23.0 mph 0.01 in Snow Light Snow
11:23 PM 30.2 °F 17.4 °F 24.8 °F 80% 30.15 in 9.0 mi North 20.7 mph 27.6 mph 0.01 in Snow Light Snow
11:53 PM 30.0 °F 17.9 °F 23.0 °F 75% 30.15 in 9.0 mi North 18.4 mph - 0.01 in   Mostly Cloudy